Regional Weather Roundup
Issued by NWS Jackson, KY

Home | Current Version | Previous Version | Graphics & Text | Print | Product List | Glossary On
Versions: 1 2 3 4 5 6 7 8 9 10 11 12 13 14 15 16 17 18 19 20 21 22 23 24 25 26 27
000
ASUS43 KJKL 221910
RWRJKL

EAST KENTUCKY HOURLY WEATHER ROUNDUP
NATIONAL WEATHER SERVICE JACKSON KY
300 PM EDT SUN APR 22 2018

NOTE: "FAIR" INDICATES FEW OR NO CLOUDS BELOW 12,000 FEET WITH
NO SIGNIFICANT WEATHER AND/OR OBSTRUCTIONS TO VISIBILITY.

* THESE REPORTS ARE NOT UNDER NWS QUALITY CONTROL AND MAY NOT
  REPORT WEATHER SUCH AS PRECIPITATION AND FOG.

KYZ079-080-083-085-087-088-110-112-115-119-120-222000
...EASTERN KENTUCKY...

CITY           SKY/WX    TMP DP  RH WIND       PRES   REMARKS
JACKSON          N/A     71  33  24 VRB3      30.19F
LONDON           N/A     69  38  32 VRB3      30.18F
SOMERSET*        N/A     70  37  30 MISG      30.17F
MONTICELLO*      N/A     70  43  37 VRB7      30.18F
WILLIAMSBURG*    N/A     72  39  30 E9        30.17F
MIDDLESBORO*     N/A     71  42  35 E5        30.19F
HARLAN APT*      N/A     68  37  31 CALM      30.20F
PIKE CO APT*     N/A     72  36  26 E3        30.20F
MOREHEAD APT*    N/A     72  30  21 VRB6G16   30.22F
ASHLAND*         N/A     64  34  32 VRB3      30.24F
$$

KYZ035-036-041-042-044-050-067-078-099-222000
...CENTRAL KENTUCKY...

CITY           SKY/WX    TMP DP  RH WIND       PRES   REMARKS
MT STERLING*     N/A     70  36  28 E9        30.21F
FLEMING/MASON*   N/A     66  32  28 NE9       30.23F
DANVILLE*      PTSUNNY   68  41  37 CALM      30.19F
LEXINGTON        N/A     70  45  40 NE9       30.19F
FRANKFORT        N/A     70  39  32 E9        30.18S
LOUISVILLE     PTSUNNY   73  41  31 E8        30.16F
GLASGOW*       LGT RAIN  63  51  65 SE9       30.16S
BOWLING GREEN  RAIN      60  56  86 SE10      30.15S
$$

KYZ091>093-OHZ055-061-077-WVZ005-015-034-035-042-222000
...SOUTHERN OHIO/WEST VIRGINIA...

CITY           SKY/WX    TMP DP  RH WIND       PRES   REMARKS
COVINGTON      CLOUDY    66  30  26 NE15      30.22F
COLUMBUS       CLOUDY    66  26  22 NE6       30.27F
DAYTON         PTSUNNY   64  25  22 E14       30.26F
WILMINGTON       N/A     62  29  28 NE10      30.25F
HUNTINGTON       N/A     63  32  31 NE6       30.23F
CHARLESTON     PTSUNNY   69  32  25 VRB5      30.23F
PINEVILLE*       N/A     73  29  20 MISG      30.26F
BECKLEY          N/A     66  35  31 SE8       30.25F
BLUEFIELD        N/A     64  26  23 SE9       30.26F
LOGAN CO APT*    N/A     72  28  20 CALM      30.20F
$$

VAZ002-007-008-TNZ017-027-036-066-071-222000
...SOUTHWEST VIRGINIA/EAST TENNESSEE...

CITY           SKY/WX    TMP DP  RH WIND       PRES   REMARKS
WISE*            N/A     66  37  34 SE8       30.24F
JONESVILLE*      N/A     68  41  37 CALM      30.22F
ABINGDON*        N/A     69  37  31 CALM      30.23F
BRISTOL        CLOUDY    68  48  48 SW9       30.22S
MORRISTOWN*    PTCLDY    68  48  49 E7G13     30.19S
SEVIERVILLE*   PTCLDY    68  48  49 CALM      30.18S
LAFOLLETTE*    PTCLDY    70  43  37 S7        30.22S
OAK RIDGE      LGT RAIN  65  48  54 CALM      30.20S
CROSSVILLE     LGT RAIN  53  50  89 E5        30.20S FOG
NASHVILLE      LGT RAIN  60  56  86 E20G28    30.10F FOG
$$

...KEY TO REMARKS...
VSB - VISIBILITY IN MILES
WCI - WIND CHILL INDEX
HX  - HEAT INDEX

$$




USA.gov is the U.S. government's official web portal to all federal, state and local government web resources and services.